Volver al catálogo

SL-14 DEB

ActivoPO
NORAD 27804·DEBRIS·🇷🇺 Russia

Lanzado Sep 28, 1991 desde Plesetsk Cosmodrome

Loading…

Próximos Pases (próximas 24 horas)

TLE

ActualizadoSource: Space-Track

Época: Sep 14, 2026, 03:34 UTC

1 27804U 91068AR  26257.14923321  .00006468  00000-0  21567-1 0  9998
2 27804  82.6415 325.7112 0346986 317.4456  65.4725 12.81448743629802

Sigue SL-14 DEB en tiempo real con AllMySat

Download on the App Store